Regional Weather Roundup
Issued by NWS Upton, NY

Current Version | Previous Version | Text Only | Print | Product List | Glossary On
Versions: 1 2 3 4 5 6 7 8 9 10 11 12 13 14 15 16 17 18 19 20 21 22 23 24 25 26 27 28 29 30 31 32 33 34 35 36 37 38 39 40 41 42 43 44 45 46 47 48 49 50
000 ASUS41 KOKX 180705 RWROKX REGIONAL WEATHER ROUNDUP NATIONAL WEATHER SERVICE NEW YORK NY 300 AM EDT THU SEP 18 2014 NOTE: "FAIR" INDICATES FEW OR NO CLOUDS BELOW 12,000 FEET WITH NO SIGNIFICANT WEATHER AND/OR OBSTRUCTIONS TO VISIBILITY. NYZ071-072-176-178-NJZ106-104-180800- NEW YORK CITY METRO AREA CITY SKY/WX TMP DP RH WIND PRES REMARKS CENTRAL PARK CLEAR 61 51 70 VRB5 29.99F LAGUARDIA APRT CLEAR 63 51 65 SW5 29.95F KENNEDY INTL CLEAR 60 52 74 W6 29.97F NEWARK/LIBERTY CLEAR 57 51 80 CALM 29.96F BRNX BOT. GARD N/A 61 50 67 CALM 29.95F TETERBORO CLEAR 55 48 77 CALM 29.95F $$ NYZ177-179-078>081-180800- LONG ISLAND NEW YORK CITY SKY/WX TMP DP RH WIND PRES REMARKS FARMINGDALE CLEAR 55 50 83 W3 29.96F ISLIP CLEAR 53 49 86 CALM 29.94F SHIRLEY CLEAR 49 46 90 CALM 29.96F WESTHAMPTON CLEAR 44 40 85 CALM 29.96F MONTAUK POINT N/A 53 49 86 CALM 29.96F $$ NYZ052-065-067-180800- HUDSON VALLEY CITY SKY/WX TMP DP RH WIND PRES REMARKS WHITE PLAINS CLEAR 52 49 89 NW6 29.95F NEWBURGH CLEAR 48 46 93 CALM 29.98F MONTGOMERY CLEAR 43 41 93 CALM 29.97S POUGHKEEPSIE CLEAR 44 42 93 CALM 29.97S ALBANY PTCLDY 47 44 90 CALM 29.97F $$ NJZ001-105-106-008-010-013-015-019>022-104-180800- NEW JERSEY CITY SKY/WX TMP DP RH WIND PRES REMARKS NEWARK/LIBERTY CLEAR 57 51 80 CALM 29.96F TETERBORO CLEAR 55 48 77 CALM 29.95F CALDWELL CLEAR 49 46 90 CALM 29.97F MORRISTOWN FOG 45 41 87 CALM 29.97F VSB 1/2 SOMERVILLE CLEAR 47 44 90 CALM 29.95F LINDEN FAIR 59 54 83 CALM 29.98F SUSSEX CLEAR 44 41 89 CALM 29.98F FOG ANDOVER N/A 44 43 96 CALM 29.98F TRENTON CLEAR 51 47 86 CALM 29.96F MILLVILLE CLEAR 50 48 93 CALM 29.97S ATLANTIC CITY CLEAR 52 50 93 CALM 29.97S WRIGHTSTOWN CLEAR 51 50 98 CALM 29.95S TOMS RIVER CLEAR 45 41 87 CALM 29.97S BELMAR CLEAR 52 46 82 W3 29.97S $$ PAZ047>061-062-071-180800- EASTERN PENNSYLVANIA CITY SKY/WX TMP DP RH WIND PRES REMARKS PHILADELPHIA CLEAR 60 53 77 SW5 29.97F ALLENTOWN CLEAR 48 45 89 NW3 29.97F SCRANTON CLEAR 47 42 83 SE6 29.98S $$ CTZ002-004>006-009-010-012-RIZ004-006-007-MAZ004-011-015-180800- SOUTHERN NEW ENGLAND IN CT CITY SKY/WX TMP DP RH WIND PRES REMARKS BRADLEY INTL CLEAR 47 43 86 CALM 29.95F HARTFORD CLEAR 49 47 93 SE8 29.96F DANBURY CLEAR 44 42 93 SW3 29.98F WTRBRY/OXFORD MOCLDY 46 41 81 CALM 29.98S BRIDGEPORT CLEAR 53 49 86 N3 29.96S MERIDEN MOCLDY 46 44 93 CALM 29.96F NEW HAVEN CLEAR 51 47 86 CALM 29.96S CHESTER FAIR 52 46 82 W3 29.96F GROTON CLEAR 48 47 96 N5 29.95F WILLIMANTIC CLEAR 45 43 93 CALM 29.97F IN RI CITY SKY/WX TMP DP RH WIND PRES REMARKS PROVIDENCE CLEAR 50 47 89 CALM 29.95F BLOCK ISLAND CLEAR 55 48 76 W5 29.94F WESTERLY CLEAR 47 45 93 CALM 29.96F IN MA CITY SKY/WX TMP DP RH WIND PRES REMARKS BOSTON CLEAR 57 47 69 W6 29.94F WORCESTER CLEAR 51 43 74 W7 29.96F WESTFIELD FOG 45 43 93 CALM 29.96S VSB 1/4 PROVINCETOWN CLEAR 52 46 82 W5 29.93F NANTUCKET CLEAR 54 49 83 W3 29.93F $$ ANZ330-335-338-340-345-350-353-355-180800- COASTAL MARINE OBSERVATIONS STATION/POSITION TIME SKY/WX TEMP WIND PRES VSBY WAVE AIR SEA DIR/SP/G HT/PER (UTC) (F) (DEG/KT/KT) (MB) (MI) (FT/S) NY HARB ENTRANCE 0700 66 70 270/ 10/ 10 1014.8 3/12 4S FIRE IS 0700 70 N/A 4/14 23SW MTP 0700 N/A 4/14 HUDSON CANYON 0700 67 74 50/ 8/ 10 1013.9 4/13 EXECUTION ROCKS 0700 64 71 260/ 8/ 12 N/A WESTERN LI SOUND 0700 64 250/ 10/ 12 N/A 0 CENTRAL LI SOUND 0600 67 71 260/ 10/ 12 N/A 1/ 3 EASTERN LI SOUND 0600 60 68 20/ 6/ 8 N/A ROBBINS REEF 0700 61 270/ 5/ 6 1013.4 $$ >>>>>>>>>>>>>>>>>>>>>>>>>>>> KEY <<<<<<<<<<<<<<<<<<<<<<<<<<< > < > SKY/WX - SKY CONDITION/PRESENT WEATHER < > TMP - TEMPERATURE IN FAHRENHEIT < > DP - DEWPOINT IN FAHRENHEIT < > RH - RELATIVE HUMIDITY IN PERCENT < > WIND - DIRECTION AND SPEED IN MPH < > PRES - MEAN SEA LEVEL PRESSURE IN INCHES OF HG < > WCI - WIND CHILL INDEX < > VSB - VISIBILITY IN MILES < > HX - HEAT INDEX < > TC - TEMPERATURE IN CELSIUS < > VRB - VARIABLE WIND DIRECTION < > < >>>>>>>>>>>>>>>>>>>>>>>>>>>> KEY <<<<<<<<<<<<<<<<<<<<<<<<<<<

USA.gov is the U.S. government's official web portal to all federal, state and local government web resources and services.